Погода в Керше

Россия / Тамбовская область     52°47′42″N   42°03′08″E
темп.,
°C
ветер,
м/с
пор.,
м/с
влажн.,
%
обл.,
%
осадки,
мм/ч
давл.,
гПа
погр.,
м
29 мая, вс
вс2900:00+8юз488974 0.0 1012137
03:00+7юз379233 0.0 1012137
06:00+10юз368698 0.0 1014193
09:00+15юз5866100 0.0 1015936
12:00+16юз6863100 0.2 10161554
15:00+12зюз3687100 1.4 1017464
18:00+12ююз3585100 0.3 1017306
21:00+9юз3497100 0.3 101871
30 мая, пн
пн3000:00+8юз349654 0.0 101960
03:00+7зюз22947 0.0 102030
06:00+10з23910 0.0 1021123
09:00+15з2269100 0.0 1021693
12:00+18юз01520 0.0 10211503
15:00+19в22495 0.0 10211698
18:00+19вюв236220 0.0 1021361
21:00+14юв2276100 0.0 102221
31 мая, вт
вт3100:00+13вюв3479100 0.0 102249
03:00+12вюв497893 0.0 1021166
06:00+13вюв4107985 0.0 1022264
09:00+18юв586841 0.0 1021609
12:00+21юв566136 0.0 10201086
15:00+23юв566271 0.0 10201376
18:00+21юв587297 0.0 1018582
21:00+17вюв51383100 0.0 1018308
1 июня, ср
ср100:00+16юв6167998 1.0 1018385
03:00+14ю499079 3.4 1019258
06:00+14юв5128899 0.8 1019305
09:00+19ю587389 0.9 1019548
12:00+22ю4569100 0.0 1019828
15:00+21ююв367887 0.1 1019547
18:00+22ю127190 0.0 1019433
21:00+18всв229364 3.9 101937
2 июня, чт
чт200:00+17юв349352 1.2 101965
03:00+15ююв4893100 1.9 1019132
06:00+17ююв498897 0.2 1018226
09:00+22ююв576849 0.3 1018447
12:00+25ю675937 0.0 1018835
15:00+26ю675948 0.0 10171143
18:00+25ю596974 0.0 1017352
21:00+20ю3683100 0.0 101796